FENGYUN 1C DEB

Satellite information

Favourite Embed

Satellite Type and Status

DEBRISIN ORBIT

Key statistics

Satellite FENGYUN 1C DEB at a glance.

Uptime

9715

Days in orbit

Revolutions

≈ 14.4

Per day

Orbit

SSO

Sun Synchronous Orbit

Inclination

98.8

Latest

Satellite identification and parameters

Extended collection of information and parameters for FENGYUN 1C DEB.

Object identification

Identified? True

Debris? True

Object name: FENGYUN 1C DEB

International designator: 1999-025AFK

Object number (NORAD): 30448

Object ID (CCSDS): 30448

Country: PEOPLES REPUBLIC OF CHINA (PRC)

Current information (Y/N): Y

RCS size: SMALL

Orbital parameters

Period: 100.338 minutes

Inclination: 98.8308 deg

SMA: 7152.72 km

Apoapsis: 786.715 km

Periapsis: 762.456 km

RAAN: 78.8338 deg

Eccentricy: 0.00169576

Argument of periapsis: 10.6007 deg

Mean anomaly: 43.5591 deg

Mean motion: 14.35145354 rev/day

Mean motion (dot): 0.00009172 rev/day2

B* drag term: 0.0032180382 1/REarth

Two-line elements (TLE)

Creation date: Dec. 13, 2025, 5:47 p.m.

Reference frame: TEME

Reference center: EARTH

Epoch: Dec. 13, 2025, 5:26 a.m. UTC

TLE line 0: 0 FENGYUN 1C DEB

TLE line 1: 1 30448U 99025AFK 25347.22661123 .00009172 00000-0 32180-2 0 9993

TLE line 2: 2 30448 98.8308 78.8338 0016958 10.6007 43.5591 14.35145354973457

Live tracking on map

Real-time ground track for satellite FENGYUN 1C DEB.

In-orbit conjunctions

A list of the most updated potential collisions computed for object FENGYUN 1C DEB.

Target Orbit TCA Probability of collision Miss distance Type
COSMOS 2251 DEB LEO 2025-11-17 14:13:22 0.0001373252 378.0 (m) DEBRIS
RITE TARGET 2 SSO 2025-09-11 13:34:42 0.000114407 520.0 (m) PAYLOAD
COSMOS 1992 LEO 2024-11-11 21:23:45 0.0004260318 771.0 (m) PAYLOAD
SL-8 R/B LEO 2024-10-10 09:25:23 0.0001117558 747.0 (m) ROCKET BODY
CZ-6A DEB LEO 2024-09-26 12:02:46 0.003865506 189.0 (m) DEBRIS

Associated space launch

Chinese polar orbiting meteorological satellite

FENGYUN 1C DEB was lifted into orbit during the mission ‘Long March 4B | Feng Yun 1C’, on board a Long March 4B space rocket.

The launch took place on May 10, 1999, 1:33 a.m. from Launch Complex 7.

For more information about the launch, click the button.

Launch to space Long March 4B | Feng Yun 1C
Long March 4B | Feng Yun 1C

Agency: N/A

Status: Launch Successful

Launch date: May 10, 1999, 1:33 a.m. UTC

Rocket: Long March 4B

Launch pad: Launch Complex 7

Location: Taiyuan Satellite Launch Center, People's Republic of China

...

Latest news about this satellite

There are no fresh news available about this satellite. Check back as we update our databases every day.


Newsletter sign-up

Weekly statistics, charts and insights to help you stay on top of the space industry.